Regional Weather Roundup
Issued by NWS Cleveland, OH

Home | Current Version | Previous Version | Graphics & Text | Print | Product List | Glossary On
Versions: 1 2 3 4 5 6 7 8 9 10 11 12 13 14 15 16 17 18 19 20 21 22 23 24 25 26 27 28 29 30 31 32 33 34 35 36 37 38 39 40 41 42 43 44 45 46 47 48 49 50
000
ASUS41 KCLE 301900
RWRCLE
OHIO REGIONAL WEATHER ROUNDUP
NATIONAL WEATHER SERVICE WILMINGTON, OH
300 PM EDT THU JUL 30 2015

NOTE: "FAIR" INDICATES FEW OR NO CLOUDS BELOW 12,000 FEET WITH NO
SIGNIFICANT WEATHER AND/OR OBSTRUCTIONS TO VISIBILITY.

OHZ001>008-015>018-024>027-034-035-043-044-302000-
   NORTHWEST OHIO

CITY           SKY/WX    TMP DP  RH WIND       PRES   REMARKS
DEFIANCE       MOSUNNY   85  57  38 W10G22    30.02S
FINDLAY        SUNNY     85  58  39 W17G23    30.00F
TOLEDO EXPRESS MOSUNNY   83  57  41 W16       29.99S
TOLEDO EXEC    SUNNY     85  55  35 W17G25    29.99F
LIMA           SUNNY     83  58  42 W12       30.04S
$$

OHZ009>014-019>023-028>033-038-089-302000-
   NORTHEAST OHIO

CITY           SKY/WX    TMP DP  RH WIND       PRES   REMARKS
CLE-HOPKINS    MOSUNNY   84  55  36 NW15      29.99F
CLE-LAKEFRONT  SUNNY     83  60  45 W16       29.96F
CUY CO. ARPT   SUNNY     82  63  51 W17       29.98F
LORAIN-ELYRIA  SUNNY     82  57  42 NW9       29.99F
ASHTABULA      SUNNY     82  53  36 W17G23    29.97F
AKRON-CANTON   MOSUNNY   85  58  39 NW10G18   29.99F
WOOSTER        NOT AVBL
MANSFIELD      SUNNY     82  57  42 W13       30.02F
YOUNGSTOWN     MOSUNNY   83  56  39 W12       29.97F
$$

OHZ042-051>053-060>062-070>072-077>081-302000-
  SOUTHWEST OHIO

CITY           SKY/WX    TMP DP  RH WIND       PRES   REMARKS
CINC-COVINGTON MOSUNNY   84  58  40 NW5       30.08S
CINC-LUNKEN    SUNNY     84  59  42 NW9       30.06F
HAMILTON       SUNNY     84  60  44 VRB7      30.07S
DAYTON         NOT AVBL
WRIGHT-PAT AFB NOT AVBL
DAYTON GENERAL SUNNY     83  56  39 NW9       30.07S
WILMINGTON     SUNNY     82  57  42 W9        30.06S
$$

OHZ036-037-039>041-045>050-054>059-063>069-073>076-082>088-302000-
  CENTRAL AND SOUTHEAST OHIO

CITY           SKY/WX    TMP DP  RH WIND       PRES   REMARKS
COLUMBUS       MOSUNNY   84  58  40 W12G21    30.02S
OSU AIRPORT    SUNNY     83  60  45 W15       30.03S
BOLTON FIELD   SUNNY     81  63  54 NW9       30.04F
RICKENBACK AFB NOT AVBL
NEWARK         SUNNY     85  58  39 NW9G17    30.01F
MARION         SUNNY     83  55  38 W15       30.03S
LANCASTER      SUNNY     83  61  47 NW8       30.03F
ZANESVILLE     SUNNY     84  56  38 NW10      30.01F
NEW PHILLY     MOSUNNY   83  60  45 W7        30.00F
$$


USA.gov is the U.S. government's official web portal to all federal, state and local government web resources and services.